Warning: Javascript must be enabled to use all the features on this page!


Page Loading - Please Wait...

* We've detected you're using a mobile device. Find our mobile dedicated web site here.
Click to hideNews Bulletins
  • Due to a lapse in appropriations, the majority of USGS websites may not be up to date and may not reflect current conditions. Websites displaying real-time data, such as Earthquake and Water and information needed for public health and safety will be updated with limited support. Additionally, USGS will not be able to respond to inquiries until appropriations are enacted. For more information, please see www.doi.gov/shutdown.

  • Please see news on new formats
  • Full News RSS icon
Click to hide state-specific text
THREATENED-GAGE-NOTICE FOR MINNESOTA
05137500 - Rainy River at Wheeler's Point, MN will be discontinued Oct. 1, 2018

For more information please click on the "Questions about sites/data" link near the bottom of this page or call 763-783-3100.

See map of locations of threatened gage(s) nationally.


USGS 05289800 MINNEHAHA CREEK AT HIAWATHA AVE. IN MINNEAPOLIS,MN

PROVISIONAL DATA SUBJECT TO REVISION

Click to hidestation-specific text
Minnehaha Creek Watershed District logo

Operated in cooperation with the Minnehaha Creek Watershed District

The precipitation data for this station are temporary and will only be displayed for 120 days. Time-series data or cumulative daily values will NOT be available for retrieval following the 120-day display period. Although the rainfall instrumentation will be calibrated at least annually, the temporary classification means that documented routine inspections and other quality assurance measures may not be performed that would make the data acceptable for archival, retrieval, or future use in general scientific or interpretive studies.

For canoeing the creek, the Minnehaha Creek Watershed District suggests a streamflow rate (also referred to as discharge or flow rate) between 75-150 cubic feet per second, depending on experience. More information is available from their web page here or at the link above.

Click on animated image to see the latest full size current video from site. Click on the Static Image to view the Frame Gallery.

       

Time-lapse video products are considered a proof of concept with no guarantee regarding product up time. Time-lapse videos can be viewed using Chrome, Firefox or Opera browser application on smartphone, tablet, desktop and laptop devices. Additional browser support for Safari and Internet Explorer may be added later.

Any use of trade, firm, or product names is for descriptive purposes only and does not imply endorsement by the U.S. Government.

This station managed by the Mounds View Field Office.

Available Parameters Available Period
All 5 Available Parameters for this site
  
00010 Temperature, water 2010-10-01  2019-01-18
00045 Precipitation 2018-09-20  2019-01-18
00060 Discharge 2006-10-01  2019-01-18
00065 Gage height 2018-09-20  2019-01-18
00095 Specific cond at 25C 2010-10-01  2019-01-18

Graph
Graph w/ stats
Graph w/o stats
Graph w/ (up to 3) parms
Table
Tab-separated
Days  (7)
 

  -- or --
Begin date
 

End date
 

Summary of all available data for this site
Instantaneous-data availability statement
Discharge, cubic feet per second
TIMEJan 11Jan 12Jan 13Jan 16Jan 17Jan 18
00:00 CST18.0P  18.8P  18.0P   13.9P  15.2P  
00:15 CST18.0P  18.8P  18.0P   13.9P  15.2P  
00:30 CST18.0P  18.8P  17.7P   13.9P  15.2P  
00:45 CST18.0P  18.8P  17.7P   13.9P  15.2P  
01:00 CST18.0P  18.8P  18.0P   13.9P  15.2P  
01:15 CST18.0P  19.1P  18.0P   13.9P  15.2P  
01:30 CST17.7P  18.8P  17.7P   13.9P  15.2P  
01:45 CST17.7P  19.1P  17.7P   13.9P  15.2P  
02:00 CST17.7P  18.8P  17.7P   13.9P  15.2P  
02:15 CST17.7P  19.1P  17.7P   13.9P  14.9P  
02:30 CST17.7P  18.8P  17.7P   13.9P  14.9P  
02:45 CST17.7P  18.8P  17.7P   13.9P  14.9P  
03:00 CST17.7P  18.8P  17.7P   13.9P  14.9P  
03:15 CST17.7P  18.8P  17.7P   13.9P  14.9P  
03:30 CST17.7P  18.8P  17.7P   13.9P  14.9P  
03:45 CST17.7P  18.8P  17.3P   13.9P  14.9P  
04:00 CST17.7P  18.8P  17.3P   13.9P  14.6P  
04:15 CST17.7P  18.8P  17.3P   13.9P  14.6P  
04:30 CST17.7P  18.8P  17.3P   13.9P  14.6P  
04:45 CST17.7P  18.8P  17.3P   13.9P  14.6P  
05:00 CST17.7P  18.8P  17.3P   14.2P  14.6P  
05:15 CST17.7P  18.8P  17.3P   13.9P  14.6P  
05:30 CST17.7P  18.8P  17.3P   14.2P  14.6P  
05:45 CST17.7P  18.8P  17.3P   14.2P  14.6P  
06:00 CST17.7P  18.8P  17.3P   14.2P  14.6P  
06:15 CST17.7P  18.8P  17.3P   14.2P   
06:30 CST17.7P  18.8P  17.3P   14.2P   
06:45 CST17.7P  18.8P  17.3P   14.2P   
07:00 CST17.7P  18.8P  17.0P   14.2P   
07:15 CST17.7P  18.8P  17.0P   14.2P   
07:30 CST17.7P  18.8P  17.0P   14.6P   
07:45 CST17.7P  18.8P  17.0P   14.2P   
08:00 CST18.0P  18.8P  17.0P   14.2P   
08:15 CST17.7P  18.8P  17.0P   14.6P   
08:30 CST18.0P  18.8P  17.0P   14.6P   
08:45 CST18.0P  18.8P  17.0P   14.6P   
09:00 CST18.0P  18.8P  17.0P   14.6P   
09:15 CST18.0P  18.8P  17.0P   14.6P   
09:30 CST18.0P  18.8P  17.0P   14.6P   
09:45 CST18.0P  18.8P  17.0P   14.6P   
10:00 CST18.0P  18.8P  17.0P   14.6P   
10:15 CST18.0P  18.8P  17.0P   14.6P   
10:30 CST18.0P  18.8P  16.6P   14.6P   
10:45 CST18.0P  18.8P  16.6P   14.6P   
11:00 CST18.0P  18.8P  16.6P   14.9P   
11:15 CST18.0P  18.8P  16.6P   14.9P   
11:30 CST18.0P  18.8P  16.6P  13.6P  14.9P   
11:45 CST18.4P  18.8P  16.6P  13.2P  14.9P   
12:00 CST18.0P  18.8P  16.6P  13.2P  14.9P   
12:15 CST18.4P  18.8P  16.6P  12.9P  14.9P   
12:30 CST18.4P  18.8P  16.6P  12.9P  14.9P   
12:45 CST18.4P  18.8P  16.6P  12.9P  14.9P   
13:00 CST18.4P  18.8P  16.6P  12.6P  14.9P   
13:15 CST18.8P  18.8P  16.6P  12.9P  14.9P   
13:30 CST18.8P  18.8P  16.6P  12.9P  14.9P   
13:45 CST18.8P  18.8P  16.6P  12.9P  14.9P   
14:00 CST18.8P  18.8P  16.6P  12.6P  14.9P   
14:15 CST18.8P  18.8P  16.6P  12.9P  14.9P   
14:30 CST18.8P  18.8P  16.6P  12.9P  14.9P   
14:45 CST18.8P  18.8P  16.6P  12.6P  14.9P   
15:00 CST18.8P  18.8P  16.6P  12.6P  15.2P   
15:15 CST18.8P  18.8P  16.6P  12.9P  15.2P   
15:30 CST18.8P  18.8P  16.6P  12.9P  15.2P   
15:45 CST18.8P  18.8P  16.6P  12.9P  15.2P   
16:00 CST18.8P  18.8P  16.6P  12.9P  15.2P   
16:15 CST18.8P  18.4P  16.3P  12.9P  15.2P   
16:30 CST18.8P  18.8P  16.3P  13.2P  15.2P   
16:45 CST18.8P  18.8P  16.3P  13.2P  15.2P   
17:00 CST18.8P  18.8P  16.3P  13.2P  15.2P   
17:15 CST18.8P  18.4P  16.3P  13.2P  15.6P   
17:30 CST18.8P  18.4P  16.3P  13.6P  15.6P   
17:45 CST18.8P  18.8P  16.3P  13.6P  15.6P   
18:00 CST18.8P  18.4P  16.3P  13.6P  15.6P   
18:15 CST18.8P  18.4P  16.3P  13.6P  15.6P   
18:30 CST18.8P  18.4P  16.3P  13.6P  15.6P   
18:45 CST18.8P  18.4P  16.3P  13.6P  15.6P   
19:00 CST18.8P  18.4P  16.3P  13.6P  15.6P   
19:15 CST18.8P  18.4P  16.3P  13.6P  15.6P   
19:30 CST18.8P  18.8P  16.3P  13.6P  15.6P   
19:45 CST18.8P  18.4P  16.3P  13.9P  15.6P   
20:00 CST18.8P  18.4P  16.3P  13.9P  15.2P   
20:15 CST18.8P  18.4P  16.3P  13.9P  15.6P   
20:30 CST18.8P  18.4P  16.3P  13.6P  15.6P   
20:45 CST18.8P  18.4P  16.3P  13.9P  15.2P   
21:00 CST18.8P  18.4P  16.3P  13.9P  15.2P   
21:15 CST18.8P  18.4P  16.3P  13.9P  15.6P   
21:30 CST18.8P  18.4P  16.3P  13.9P  15.6P   
21:45 CST18.8P  18.4P  15.9P  13.9P  15.2P   
22:00 CST19.1P  18.4P  15.9P  13.9P  15.2P   
22:15 CST19.1P  18.0P  16.3P  13.9P  15.6P   
22:30 CST18.8P  18.0P  15.9P  13.9P  15.6P   
22:45 CST19.1P  18.0P   13.9P  15.2P   
23:00 CST19.1P  18.0P   13.9P  15.2P   
23:15 CST18.8P  18.0P   13.9P  15.2P   
23:30 CST18.8P  18.0P   13.9P  15.2P   
23:45 CST18.8P  18.0P   13.9P  15.2P   
COUNT969691509625
MAX19.119.118.013.915.615.2
MIN17.718.015.912.613.914.6

Explanation
  P  Provisional data subject to revision.